Time,TemperatureF,DewpointF,PressureIn,WindDirection,WindDirectionDegrees,WindSpeedMPH,WindSpeedGustMPH,Humidity,HourlyPrecipIn,Conditions,Clouds,dailyrainin,SoftwareType,DateUTC
2013-07-24 00:01:00,73.0,69.0,29.69,North,0,0.0,0.0,87,0.00,,,0.00,,2013-07-24 04:01:00,
2013-07-24 00:32:00,73.0,69.0,29.69,North,0,0.0,2.0,88,0.00,,,0.00,,2013-07-24 04:32:00,
2013-07-24 00:43:00,73.0,69.0,29.70,North,0,0.0,4.0,88,0.00,,,0.00,,2013-07-24 04:43:00,
2013-07-24 00:52:00,73.0,69.0,29.70,North,0,0.0,4.0,88,0.00,,,0.00,,2013-07-24 04:52:00,
2013-07-24 01:02:00,73.0,69.0,29.70,North,0,0.0,5.0,88,0.00,,,0.00,,2013-07-24 05:02:00,
2013-07-24 01:52:00,73.0,69.0,29.70,North,0,0.0,3.0,87,0.00,,,0.00,,2013-07-24 05:52:00,
2013-07-24 02:01:00,73.0,69.0,29.69,North,0,0.0,1.0,88,0.00,,,0.00,,2013-07-24 06:01:00,
2013-07-24 02:34:00,73.0,69.0,29.68,North,0,0.0,4.0,88,0.00,,,0.00,,2013-07-24 06:34:00,
2013-07-24 02:53:00,72.0,69.0,29.68,North,0,0.0,3.0,89,0.00,,,0.00,,2013-07-24 06:53:00,
2013-07-24 03:02:00,72.0,69.0,29.67,NW,304,1.0,3.0,89,0.00,,,0.00,,2013-07-24 07:02:00,
2013-07-24 03:12:00,72.0,69.0,29.67,NW,304,1.0,3.0,89,0.00,,,0.00,,2013-07-24 07:12:00,
2013-07-24 03:32:00,72.0,69.0,29.67,North,0,0.0,0.0,89,0.00,,,0.00,,2013-07-24 07:32:00,
2013-07-24 03:53:00,71.0,68.0,29.68,North,0,0.0,0.0,91,0.00,,,0.00,,2013-07-24 07:53:00,
2013-07-24 04:12:00,71.0,69.0,29.68,North,0,0.0,0.0,92,0.00,,,0.00,,2013-07-24 08:12:00,
2013-07-24 04:32:00,70.0,68.0,29.68,North,0,0.0,0.0,94,0.00,,,0.00,,2013-07-24 08:32:00,
2013-07-24 04:43:00,70.0,68.0,29.68,North,0,0.0,1.0,95,0.00,,,0.00,,2013-07-24 08:43:00,
2013-07-24 04:52:00,70.0,68.0,29.68,North,0,0.0,1.0,95,0.00,,,0.00,,2013-07-24 08:52:00,
2013-07-24 05:02:00,70.0,68.0,29.68,North,0,0.0,0.0,95,0.00,,,0.00,,2013-07-24 09:02:00,
2013-07-24 05:22:00,70.0,68.0,29.68,North,0,0.0,0.0,95,0.00,,,0.00,,2013-07-24 09:22:00,
2013-07-24 05:32:00,70.0,68.0,29.68,North,0,0.0,0.0,95,0.00,,,0.00,,2013-07-24 09:32:00,
2013-07-24 05:43:00,69.0,67.0,29.69,North,0,0.0,0.0,94,0.00,,,0.00,,2013-07-24 09:43:00,
2013-07-24 05:53:00,69.0,67.0,29.69,North,0,0.0,0.0,94,0.00,,,0.00,,2013-07-24 09:53:00,
2013-07-24 06:02:00,69.0,67.0,29.69,North,0,0.0,0.0,94,0.00,,,0.00,,2013-07-24 10:02:00,
2013-07-24 06:33:00,69.0,68.0,29.70,North,0,0.0,0.0,95,0.00,,,0.00,,2013-07-24 10:33:00,
2013-07-24 06:43:00,69.0,68.0,29.71,North,0,0.0,0.0,95,0.00,,,0.00,,2013-07-24 10:43:00,
2013-07-24 06:53:00,69.0,68.0,29.70,North,0,0.0,1.0,95,0.00,,,0.00,,2013-07-24 10:53:00,
2013-07-24 07:02:00,69.0,68.0,29.70,North,0,0.0,1.0,95,0.00,,,0.00,,2013-07-24 11:02:00,
2013-07-24 07:12:00,69.0,68.0,29.70,North,0,0.0,1.0,95,0.00,,,0.00,,2013-07-24 11:12:00,
2013-07-24 07:22:00,70.0,68.0,29.70,North,0,0.0,1.0,95,0.00,,,0.00,,2013-07-24 11:22:00,
2013-07-24 07:32:00,71.0,69.0,29.71,North,0,0.0,1.0,93,0.00,,,0.00,,2013-07-24 11:32:00,
2013-07-24 07:44:00,72.0,69.0,29.72,NW,311,1.0,4.0,91,0.00,,,0.00,,2013-07-24 11:44:00,
2013-07-24 07:52:00,72.0,69.0,29.72,NW,311,1.0,4.0,91,0.00,,,0.00,,2013-07-24 11:52:00,
2013-07-24 08:02:00,72.0,69.0,29.72,NW,311,1.0,4.0,91,0.00,,,0.00,,2013-07-24 12:02:00,
2013-07-24 08:32:00,73.0,69.0,29.74,NW,317,2.0,6.0,87,0.00,,,0.00,,2013-07-24 12:32:00,
2013-07-24 08:52:00,73.0,69.0,29.75,NW,325,2.0,9.0,86,0.00,,,0.00,,2013-07-24 12:52:00,
2013-07-24 09:32:00,73.0,68.0,29.75,NW,312,2.0,11.0,85,0.00,,,0.00,,2013-07-24 13:32:00,
2013-07-24 09:53:00,74.0,69.0,29.76,North,0,0.0,9.0,85,0.00,,,0.00,,2013-07-24 13:53:00,
2013-07-24 10:02:00,74.0,69.0,29.76,North,0,0.0,9.0,85,0.00,,,0.00,,2013-07-24 14:02:00,
2013-07-24 10:12:00,74.0,69.0,29.76,North,0,0.0,9.0,85,0.00,,,0.00,,2013-07-24 14:12:00,
2013-07-24 10:22:00,74.0,70.0,29.77,North,0,0.0,6.0,86,0.00,,,0.00,,2013-07-24 14:22:00,
2013-07-24 10:32:00,74.0,69.0,29.78,NW,319,2.0,9.0,85,0.00,,,0.00,,2013-07-24 14:32:00,
2013-07-24 10:43:00,74.0,70.0,29.78,NW,325,5.0,11.0,86,0.00,,,0.00,,2013-07-24 14:43:00,
2013-07-24 10:55:00,74.0,70.0,29.78,NW,325,5.0,11.0,86,0.00,,,0.00,,2013-07-24 14:55:00,
2013-07-24 11:02:00,74.0,70.0,29.78,NW,313,3.0,7.0,86,0.00,,,0.00,,2013-07-24 15:02:00,
2013-07-24 11:12:00,74.0,68.0,29.78,NW,321,4.0,14.0,83,0.00,,,0.00,,2013-07-24 15:12:00,
2013-07-24 11:22:00,75.0,70.0,29.78,North,0,0.0,10.0,84,0.00,,,0.00,,2013-07-24 15:22:00,
2013-07-24 11:33:00,75.0,70.0,29.78,North,0,0.0,10.0,84,0.00,,,0.00,,2013-07-24 15:33:00,
2013-07-24 11:43:00,75.0,69.0,29.80,NW,326,1.0,10.0,83,0.00,,,0.00,,2013-07-24 15:43:00,
2013-07-24 11:53:00,75.0,69.0,29.80,NW,317,5.0,8.0,83,0.00,,,0.00,,2013-07-24 15:53:00,
2013-07-24 12:02:00,75.0,69.0,29.80,NW,317,5.0,8.0,83,0.00,,,0.00,,2013-07-24 16:02:00,
2013-07-24 12:22:00,75.0,69.0,29.81,NNW,339,3.0,9.0,83,0.00,,,0.00,,2013-07-24 16:22:00,
2013-07-24 12:33:00,75.0,69.0,29.81,NW,316,3.0,9.0,83,0.00,,,0.00,,2013-07-24 16:33:00,
2013-07-24 12:43:00,76.0,70.0,29.81,NW,309,4.0,10.0,82,0.00,,,0.00,,2013-07-24 16:43:00,
2013-07-24 12:53:00,76.0,70.0,29.81,NNW,328,2.0,10.0,83,0.00,,,0.00,,2013-07-24 16:53:00,
2013-07-24 13:03:00,76.0,70.0,29.81,NNW,333,2.0,6.0,83,0.00,,,0.00,,2013-07-24 17:03:00,
2013-07-24 13:12:00,75.0,69.0,29.81,NNW,331,3.0,9.0,83,0.00,,,0.00,,2013-07-24 17:12:00,
2013-07-24 13:22:00,75.0,69.0,29.81,NNW,332,1.0,7.0,83,0.00,,,0.00,,2013-07-24 17:22:00,
2013-07-24 13:33:00,75.0,69.0,29.81,NNW,332,1.0,7.0,83,0.00,,,0.00,,2013-07-24 17:33:00,
2013-07-24 13:53:00,75.0,69.0,29.81,NW,324,4.0,7.0,83,0.00,,,0.00,,2013-07-24 17:53:00,
2013-07-24 14:02:00,75.0,69.0,29.81,NW,324,4.0,7.0,83,0.00,,,0.00,,2013-07-24 18:02:00,
2013-07-24 14:22:00,75.0,69.0,29.82,NNW,336,4.0,10.0,81,0.00,,,0.00,,2013-07-24 18:22:00,
2013-07-24 14:33:00,75.0,69.0,29.82,NNW,336,4.0,10.0,81,0.00,,,0.00,,2013-07-24 18:33:00,
2013-07-24 14:43:00,75.0,69.0,29.82,NNW,336,4.0,10.0,81,0.00,,,0.00,,2013-07-24 18:43:00,
2013-07-24 14:52:00,76.0,69.0,29.81,NW,311,3.0,10.0,80,0.00,,,0.00,,2013-07-24 18:52:00,
2013-07-24 15:03:00,76.0,69.0,29.81,NW,311,3.0,10.0,80,0.00,,,0.00,,2013-07-24 19:03:00,
2013-07-24 15:12:00,76.0,69.0,29.81,NW,311,3.0,10.0,80,0.00,,,0.00,,2013-07-24 19:12:00,
2013-07-24 15:22:00,76.0,69.0,29.81,NW,325,3.0,10.0,78,0.00,,,0.00,,2013-07-24 19:22:00,
2013-07-24 15:32:00,76.0,69.0,29.81,NW,321,2.0,7.0,80,0.00,,,0.00,,2013-07-24 19:32:00,
2013-07-24 15:43:00,76.0,69.0,29.82,NW,324,3.0,12.0,78,0.00,,,0.00,,2013-07-24 19:43:00,
2013-07-24 15:53:00,76.0,69.0,29.82,NW,312,4.0,14.0,78,0.00,,,0.00,,2013-07-24 19:53:00,
2013-07-24 16:02:00,76.0,69.0,29.82,NW,312,4.0,14.0,78,0.00,,,0.00,,2013-07-24 20:02:00,
2013-07-24 16:13:00,77.0,69.0,29.82,NNW,344,2.0,11.0,77,0.00,,,0.00,,2013-07-24 20:13:00,
2013-07-24 16:23:00,77.0,69.0,29.82,NNW,344,2.0,11.0,77,0.00,,,0.00,,2013-07-24 20:23:00,
2013-07-24 16:33:00,76.0,67.0,29.82,NW,312,8.0,11.0,75,0.00,,,0.00,,2013-07-24 20:33:00,
2013-07-24 16:43:00,76.0,67.0,29.82,NW,314,3.0,12.0,74,0.00,,,0.00,,2013-07-24 20:43:00,
2013-07-24 16:53:00,77.0,68.0,29.82,NW,317,5.0,9.0,75,0.00,,,0.00,,2013-07-24 20:53:00,
2013-07-24 17:03:00,77.0,68.0,29.82,NW,317,5.0,9.0,75,0.00,,,0.00,,2013-07-24 21:03:00,
2013-07-24 17:12:00,77.0,67.0,29.82,NW,320,1.0,11.0,72,0.00,,,0.00,,2013-07-24 21:12:00,
2013-07-24 17:22:00,77.0,67.0,29.82,NW,323,6.0,10.0,72,0.00,,,0.00,,2013-07-24 21:22:00,
2013-07-24 17:32:00,77.0,67.0,29.82,NW,323,6.0,10.0,72,0.00,,,0.00,,2013-07-24 21:32:00,
2013-07-24 17:52:00,77.0,67.0,29.82,North,0,0.0,9.0,72,0.00,,,0.00,,2013-07-24 21:52:00,
2013-07-24 18:02:00,77.0,67.0,29.82,North,0,0.0,9.0,72,0.00,,,0.00,,2013-07-24 22:02:00,
2013-07-24 18:12:00,77.0,67.0,29.82,North,0,0.0,9.0,72,0.00,,,0.00,,2013-07-24 22:12:00,
2013-07-24 18:22:00,77.0,66.0,29.83,NW,313,1.0,10.0,69,0.00,,,0.00,,2013-07-24 22:22:00,
2013-07-24 18:32:00,77.0,66.0,29.82,NW,325,3.0,10.0,70,0.00,,,0.00,,2013-07-24 22:32:00,
2013-07-24 18:43:00,77.0,66.0,29.82,NW,310,3.0,9.0,69,0.00,,,0.00,,2013-07-24 22:43:00,
2013-07-24 19:02:00,77.0,65.0,29.83,NW,314,3.0,11.0,67,0.00,,,0.00,,2013-07-24 23:02:00,
2013-07-24 19:22:00,76.0,64.0,29.84,NNW,327,3.0,7.0,67,0.00,,,0.00,,2013-07-24 23:22:00,
2013-07-24 19:32:00,76.0,65.0,29.84,North,0,0.0,10.0,68,0.00,,,0.00,,2013-07-24 23:32:00,
2013-07-24 19:52:00,76.0,64.0,29.85,North,0,0.0,6.0,66,0.00,,,0.00,,2013-07-24 23:52:00,
2013-07-24 20:02:00,75.0,63.0,29.85,North,0,0.0,6.0,67,0.00,,,0.00,,2013-07-25 00:02:00,
2013-07-24 20:12:00,74.0,63.0,29.85,North,0,0.0,1.0,69,0.00,,,0.00,,2013-07-25 00:12:00,
2013-07-24 20:33:00,74.0,64.0,29.86,North,0,0.0,4.0,71,0.00,,,0.00,,2013-07-25 00:33:00,
2013-07-24 20:43:00,72.0,62.0,29.87,North,0,0.0,2.0,72,0.00,,,0.00,,2013-07-25 00:43:00,
2013-07-24 21:32:00,70.0,62.0,29.89,North,0,0.0,3.0,76,0.00,,,0.00,,2013-07-25 01:32:00,
2013-07-24 22:02:00,69.0,62.0,29.91,North,0,0.0,4.0,78,0.00,,,0.00,,2013-07-25 02:02:00,
2013-07-24 22:12:00,69.0,62.0,29.91,North,0,0.0,4.0,78,0.00,,,0.00,,2013-07-25 02:12:00,
2013-07-24 22:22:00,68.0,61.0,29.92,NW,317,3.0,6.0,79,0.00,,,0.00,,2013-07-25 02:22:00,
2013-07-24 22:43:00,68.0,60.0,29.93,WNW,296,7.0,15.0,76,0.00,,,0.00,,2013-07-25 02:43:00,
2013-07-24 23:02:00,68.0,59.0,29.93,WNW,297,2.0,7.0,74,0.00,,,0.00,,2013-07-25 03:02:00,
2013-07-24 23:16:00,68.0,59.0,29.93,WNW,297,2.0,7.0,74,0.00,,,0.00,,2013-07-25 03:16:00,
2013-07-24 23:39:00,67.0,58.0,29.93,WNW,289,1.0,6.0,74,0.00,,,0.00,,2013-07-25 03:39:00,
2013-07-24 23:52:00,66.0,57.0,29.94,North,354,1.0,12.0,73,0.00,,,0.00,,2013-07-25 03:52:00,